Location: York
(31.8935°S, 116.7682°E)
Time: 22:57:57
(UTC+08:00)

ISS - Visible Passes

Search period start: 04 December 2021 00:00
Search period end: 14 December 2021 00:00
Orbit: 417 x 423 km, 51.6° (Epoch: 04 December)

Date Brightness Start Highest point End Pass type
(mag) Time Alt. Az. Time Alt. Az. Time Alt. Az.
11 Dec -1.1 21:42:54 15° SSE 21:42:54 15° SSE 21:43:40 10° SSE visible
12 Dec -0.9 04:10:23 10° SSW 04:13:09 22° SE 04:15:53 10° E visible
12 Dec -3.7 20:49:19 10° NW 20:52:42 79° SW 20:56:07 10° SE visible
13 Dec -0.4 03:23:19 10° S 03:25:17 14° SSE 03:27:14 10° ESE visible
13 Dec -3.6 20:01:44 10° NNW 20:05:01 50° NE 20:08:21 10° SE visible
13 Dec -0.4 21:39:57 10° WSW 21:42:01 15° SSW 21:44:07 10° S visible
